CW1285 Weather Reports


Display with metric or nautical units.
time (UTC)temp
F
wind
direction
speed
MPH
gust
MPH
rain 1hr
in
rain 24hr
in
rain mn
in
humidity
%
barometer
mb
20181212091511 27 220 0.0 0.0 0.00 0.00 0.00 92 1024.4
20181212090032 28 220 0.0 0.0 0.00 0.00 0.00 93 1024.5
20181212084526 27 220 0.0 0.0 0.00 0.00 0.00 92 1024.7
20181212083013 28 220 0.0 0.0 0.00 0.00 0.00 92 1024.7
20181212081512 27 220 0.0 0.0 0.00 0.00 0.00 92 1024.8
20181212080011 27 220 0.0 0.0 0.00 0.00 0.00 92 1024.7
20181212074516 27 220 0.0 0.0 0.00 0.00 0.00 92 1024.7
20181212073007 28 220 0.0 0.0 0.00 0.00 0.00 91 1024.6
20181212071505 28 220 0.0 0.0 0.00 0.00 0.00 92 1024.4
20181212070002 28 220 0.0 0.0 0.00 0.00 0.00 91 1024.4
20181212063320 28 220 0.0 0.0 0.00 0.00 0.00 90 1024.5
20181212061658 29 220 0.0 0.0 0.00 0.00 0.00 89 1024.6
20181212060231 29 220 0.0 0.0 0.00 0.00 0.00 89 1024.3
20181212054734 30 220 0.0 0.0 0.00 0.00 0.00 89 1024.4
20181212053142 30 219 0.0 0.0 0.00 0.00 0.00 87 1024.5
20181212051613 31 220 0.0 0.0 0.00 0.00 0.00 87 1024.7
20181212050139 32 219 0.0 0.0 0.00 0.00 0.00 83 1024.8
20181212044616 33 219 0.0 0.0 0.00 0.00 0.00 80 1024.7
20181212041612 34 219 0.0 0.0 0.00 0.00 0.00 78 1024.8
20181212040133 34 219 0.0 0.0 0.00 0.00 0.00 79 1024.9
20181212034655 34 217 0.0 0.0 0.00 0.00 0.00 79 1025.1
20181212033116 34 217 0.0 0.0 0.00 0.00 0.00 78 1025.3
20181212031657 35 217 0.0 0.0 0.00 0.00 0.00 75 1025.2
20181212030142 35 217 0.0 0.0 0.00 0.00 0.00 76 1025.1
20181212024602 36 217 0.0 0.0 0.00 0.00 0.00 74 1025.1
20181212023127 36 218 0.0 0.0 0.00 0.00 0.00 73 1025.1
20181212021615 36 217 0.0 0.0 0.00 0.00 0.00 72 1025.0
20181212020047 37 216 0.0 0.0 0.00 0.00 0.00 71 1025.2
20181212014639 37 215 0.0 0.0 0.00 0.00 0.00 70 1025.1
20181212013048 36 215 0.0 0.0 0.00 0.00 0.00 71 1025.2
20181212011619 36 214 0.0 0.0 0.00 0.00 0.00 73 1025.1
20181212010047 36 214 0.0 0.0 0.00 0.00 0.00 70 1024.9
20181212004550 37 214 0.0 0.0 0.00 0.00 0.00 68 1025.1
20181212003053 38 214 0.0 0.0 0.00 0.00 0.00 66 1025.1
20181212001617 40 214 0.0 0.0 0.00 0.00 0.00 64 1025.0
20181212000122 40 214 0.0 0.0 0.00 0.00 0.00 59 1024.8
20181211234554 41 213 0.0 0.0 0.00 0.00 0.00 58 1025.0
20181211233108 41 250 0.0 0.0 0.00 0.00 0.00 59 1024.6
20181211231545 42 250 0.0 0.0 0.00 0.00 0.00 59 1024.5
20181211230119 42 250 0.0 0.0 0.00 0.00 0.00 60 1024.5
20181211224542 43 250 0.0 0.0 0.00 0.00 0.00 57 1024.3
20181211223040 44 250 0.0 0.0 0.00 0.00 0.00 56 1024.2
20181211221534 46 250 0.0 0.0 0.00 0.00 0.00 53 1024.3
20181211220054 47 250 0.0 0.0 0.00 0.00 0.00 49 1024.2
20181211214541 48 250 0.0 0.0 0.00 0.00 0.00 45 1024.2
20181211213055 50 260 0.0 0.0 0.00 0.00 0.00 45 1024.1
20181211211551 50 264 0.0 0.0 0.00 0.00 0.00 42 1024.0
20181211210044 51 285 0.0 1.0 0.00 0.00 0.00 41 1024.1
20181211204547 51 30 0.0 2.0 0.00 0.00 0.00 37 1024.2
20181211203033 51 141 0.0 2.0 0.00 0.00 0.00 40 1024.0
20181211201543 51 274 0.0 2.0 0.00 0.00 0.00 42 1023.9
20181211200101 51 330 0.0 0.0 0.00 0.00 0.00 44 1024.0
20181211194540 51 110 0.0 3.0 0.00 0.00 0.00 40 1024.1
20181211193031 51 287 0.0 1.0 0.00 0.00 0.00 47 1024.2
20181211191539 50 348 0.0 2.0 0.00 0.00 0.00 44 1024.2
20181211190022 50 108 0.0 3.0 0.00 0.00 0.00 48 1024.2
20181211184600 49 80 0.0 4.0 0.00 0.00 0.00 51 1024.4
20181211183012 48 248 0.0 6.0 0.00 0.00 0.00 53 1024.8
20181211181511 48 283 0.0 2.0 0.00 0.00 0.00 56 1024.8
20181211180008 48 247 0.0 0.0 0.00 0.00 0.00 61 1025.0
20181211174532 47 58 0.0 2.0 0.00 0.00 0.00 56 1025.0
20181211173005 47 252 0.0 2.0 0.00 0.00 0.00 62 1025.4
20181211171634 46 91 0.0 2.0 0.00 0.00 0.00 66 1025.7
20181211170235 45 274 0.0 3.0 0.00 0.00 0.00 65 1025.9
20181211164622 44 246 0.0 1.0 0.00 0.02 0.00 72 1026.0
20181211163145 43 84 0.0 3.0 0.00 0.02 0.00 76 1026.3
20181211161718 42 295 0.0 0.0 0.00 0.02 0.00 77 1026.6
20181211160115 41 308 0.0 2.0 0.00 0.02 0.00 82 1026.9
20181211154633 40 264 0.0 0.0 0.00 0.02 0.00 86 1026.8
20181211153056 39 71 0.0 0.0 0.00 0.02 0.00 89 1026.9
20181211151640 38 91 0.0 2.0 0.00 0.02 0.00 90 1026.8
20181211150058 38 65 0.0 2.0 0.00 0.02 0.00 92 1026.8
20181211144621 37 328 0.0 1.0 0.00 0.02 0.00 93 1026.8
20181211143033 37 153 0.0 3.0 0.00 0.02 0.00 94 1026.6
20181211141554 37 264 0.0 0.0 0.00 0.02 0.00 96 1026.1
20181211140036 37 112 0.0 0.0 0.00 0.02 0.00 96 1025.9
20181211134536 37 112 0.0 0.0 0.00 0.02 0.00 96 1025.7
20181211133040 37 119 0.0 1.0 0.00 0.02 0.00 97 1025.5
20181211131600 37 132 0.0 0.0 0.00 0.02 0.00 97 1025.2
20181211130031 38 110 0.0 0.0 0.00 0.02 0.00 97 1025.1
20181211124535 37 267 0.0 0.0 0.00 0.02 0.00 97 1024.9
20181211123019 37 267 0.0 0.0 0.00 0.02 0.00 97 1025.0
20181211121529 36 113 0.0 0.0 0.00 0.02 0.00 97 1024.9
20181211120021 36 113 0.0 0.0 0.00 0.02 0.00 97 1024.7
20181211114516 37 113 0.0 0.0 0.00 0.02 0.00 97 1024.5
20181211113040 37 136 0.0 0.0 0.00 0.02 0.00 97 1024.6
20181211111537 36 136 0.0 0.0 0.00 0.02 0.00 97 1024.5
20181211110014 35 257 0.0 0.0 0.00 0.02 0.00 96 1024.3
20181211104513 35 257 0.0 0.0 0.00 0.02 0.00 96 1024.0
20181211103028 35 257 0.0 0.0 0.00 0.02 0.00 97 1023.9
20181211101508 35 257 0.0 0.0 0.00 0.02 0.00 96 1023.9
20181211100009 35 257 0.0 0.0 0.00 0.02 0.00 96 1023.9
20181211094523 35 257 0.0 0.0 0.00 0.02 0.00 96 1023.9
20181211093007 35 257 0.0 0.0 0.00 0.02 0.00 96 1023.7